[[{"header":{"parameterUnit":"m.s-1","parameterCategory":1,"la1":30.2991,"la2":30.254,"lo1":-89.0895,"lo2":-89.0444,"dy":0.0017,"dx":0.0017,"nx":28,"ny":28,"refTime":"2025-07-16T03:00:00:Z","depth":0,"parameterNumber":2,"parameterNumberName":"U-component_of_WINDS"},"data":[0,0,0,0,0,0,0,0,0,0,0,0,0,0,0,0,0,0,0,0,0,0,0,0,0,0,0,0,0,0,0,0,0,0,0,0,0,0,0,0,0,0,0,0,0,0,0,0,0,0,0,0,0,0,0,0,0,0,0.6659,0.666,0,0.6716,0.6716,0.6717,0.6724,0.6723,0.6722,0.6722,0.6776,0.6778,0.678,0,0,0,0,0,0,0,0,0,0,0,0,0,0.6552,0.6554,0.6659,0.666,0.6661,0.6715,0.6716,0.6717,0.6724,0.6723,0.6722,0.6722,0.6775,0.6778,0.678,0,0,0,0,0,0,0,0,0,0,0,0,0,0.6602,0.6554,0.6659,0.6671,0.6672,0.6715,0.6716,0.6717,0.6724,0.6723,0.6722,0.6721,0.6775,0.6777,0.678,0.6815,0,0,0.6789,0.679,0,0,0,0,0,0,0,0,0.6599,0.6606,0.6668,0.667,0.6672,0.6712,0.6698,0.675,0.6724,0.6704,0.6722,0.6721,0.6755,0.676,0.6772,0.6817,0.682,0.6789,0.6791,0.6793,0.6793,0,0,0,0,0,0,0,0.6596,0.6604,0.6681,0.6669,0.6671,0.6671,0.6677,0.6708,0.6733,0.6706,0.6706,0.6713,0.6756,0.6769,0.6773,0.682,0.6789,0.6792,0.6794,0.6795,0.6894,0.6894,0,0,0,0,0,0,0.6591,0.6601,0.668,0.6683,0.6633,0.6674,0.6681,0.67,0.6733,0.6737,0.6714,0.6713,0.6764,0.677,0.6775,0.6816,0.6792,0.6795,0.6797,0.6893,0.6894,0.6895,0,0,0,0,0,0,0.6589,0.6598,0.6677,0.6642,0.6652,0.6677,0.6698,0.6701,0.6714,0.6739,0.6743,0.6723,0.6764,0.6771,0.6804,0.6818,0.6797,0.6799,0.6892,0.6893,0.6894,0.6898,0,0,0,0,0,0,0.6585,0.6597,0.6612,0.6642,0.6654,0.6707,0.6699,0.6703,0.672,0.672,0.6749,0.6753,0.6764,0.68,0.6807,0.6821,0.6801,0.6891,0.6892,0.6894,0.6897,0.6899,0.6902,0,0,0,0,0,0.6582,0.661,0.6613,0.6622,0.6673,0.6708,0.6715,0.6728,0.6721,0.6735,0.675,0.6752,0.6815,0.6803,0.6812,0.6827,0.689,0.6892,0.6894,0.6896,0.6899,0.6902,0,0,0,0,0,0,0.658,0.6615,0.6617,0.6657,0.668,0.6709,0.6728,0.6731,0.6755,0.6754,0.6768,0.6774,0.6807,0.682,0.6806,0.686,0.6852,0.6855,0.685,0.6853,0.6856,0.6851,0.6804,0,0,0,0,0,0.6584,0.6611,0.664,0.6672,0.6683,0.6703,0.6719,0.6727,0.675,0.676,0.6778,0.6799,0.6823,0.6839,0.6863,0.6899,0.6904,0.6913,0.6915,0.6917,0.692,0.6937,0.6941,0.6901,0.6901,0.6901,0,0,0.6594,0.6616,0.6632,0.6672,0.6691,0.6716,0.6711,0.6739,0.6758,0.6763,0.6796,0.681,0.6834,0.6868,0.6884,0.6881,0.6932,0.692,0.6921,0.6923,0.694,0.6943,0.6947,0.6902,0.6902,0.6902,0,0,0.6623,0.6644,0.6672,0.669,0.6718,0.6731,0.6737,0.6766,0.6776,0.6809,0.6813,0.6834,0.6877,0.6893,0.6907,0.694,0.6942,0.6948,0.696,0.6976,0.6979,0.6982,0.6992,0.6996,0.6951,0.6951,0.6951,0,0.6631,0.6671,0.6685,0.6713,0.6729,0.6736,0.6763,0.678,0.6814,0.6824,0.682,0.6872,0.6889,0.6926,0.6934,0.6945,0.6952,0.6944,0.6978,0.6981,0.6984,0.6994,0.6997,0.6951,0.6951,0.6951,0.6951,0,0.6678,0.6705,0.6724,0.6757,0.6776,0.6803,0.682,0.6836,0.6842,0.6855,0.6887,0.6907,0.6935,0.6944,0.695,0.6981,0.6978,0.6976,0.6967,0.6988,0.6997,0.7001,0.6952,0.6951,0.6951,0.6951,0,0,0.6709,0.6748,0.6755,0.6769,0.6799,0.682,0.6846,0.6873,0.6886,0.6909,0.693,0.6965,0.6962,0.6978,0.6986,0.7,0.7023,0.6996,0.6997,0.6999,0.7056,0.7056,0.7061,0.7024,0.7025,0.7026,0.7053,0,0.674,0.6789,0.6802,0.6842,0.6866,0.6872,0.6894,0.6914,0.6926,0.6947,0.6959,0.6983,0.6979,0.6988,0.7003,0.7017,0.7034,0.7015,0.7042,0.7042,0.7035,0.7066,0.7067,0.7092,0.7057,0.7058,0.7058,0,0.6785,0.6808,0.6851,0.6876,0.6887,0.6907,0.6932,0.6952,0.6974,0.6981,0.6998,0.7004,0.7029,0.7019,0.7053,0.7039,0.7051,0.7059,0.706,0.7062,0.7051,0.7067,0.7101,0.7104,0.7064,0.7064,0.7063,0,0.68,0.6843,0.6874,0.6886,0.6916,0.693,0.6943,0.6964,0.6978,0.7,0.7009,0.7033,0.7045,0.7062,0.7073,0.7066,0.7105,0.7097,0.711,0.711,0.7118,0.7117,0.7152,0.7127,0.7127,0.7127,0.7127,0,0.6834,0.686,0.6881,0.69,0.6927,0.6941,0.6967,0.698,0.6998,0.7018,0.7024,0.7042,0.7056,0.7076,0.7084,0.7109,0.7115,0.7121,0.7122,0.712,0.7119,0.7127,0.7125,0.7128,0.7128,0.7127,0.7127,0,0.6857,0.6872,0.6906,0.6932,0.6938,0.6958,0.6979,0.6996,0.7008,0.7032,0.7039,0.7056,0.7079,0.7092,0.7121,0.7126,0.7154,0.7155,0.7147,0.7147,0.716,0.7158,0.72,0.7206,0.7178,0.7178,0.7178,0,0.6877,0.6897,0.6924,0.6938,0.6952,0.6974,0.6989,0.7002,0.7017,0.7042,0.7056,0.7079,0.7099,0.7134,0.7149,0.717,0.7171,0.7185,0.7174,0.717,0.717,0.7168,0.7169,0.7186,0.7186,0.7186,0.7187,0,0.691,0.6916,0.6939,0.6963,0.6981,0.7,0.7019,0.703,0.7046,0.7062,0.7086,0.7101,0.713,0.7152,0.7174,0.7186,0.7188,0.719,0.7194,0.7191,0.7184,0.7186,0.715,0.7189,0.7188,0.7188,0.7188,0.7188,0.6931,0.6948,0.697,0.6993,0.7009,0.7026,0.7043,0.7057,0.7077,0.7102,0.7108,0.7133,0.7151,0.7181,0.7193,0.7211,0.7209,0.7215,0.7216,0.7217,0.7217,0.7182,0.7215,0.7215,0.7215,0.7215,0.7215,0,0.6963,0.6977,0.6999,0.7025,0.7043,0.7045,0.7066,0.708,0.7102,0.712,0.7139,0.7164,0.7186,0.7201,0.7222,0.7234,0.7235,0.7239,0.7237,0.7239,0.7219,0.7212,0.7237,0.7237,0.7237,0.7237,0.7237,0.7237,0.6982,0.701,0.7018,0.7053,0.7067,0.7091,0.7103,0.7118,0.7132,0.7161,0.7179,0.7189,0.7205,0.7227,0.7246,0.725,0.7257,0.726,0.7264,0.7244,0.7241,0.7239,0.7233,0.7262,0.7262,0.7283,0.7283,0.7283]},{"header":{"parameterUnit":"m.s-1","parameterCategory":1,"la1":30.2991,"la2":30.254,"lo1":-89.0895,"lo2":-89.0444,"dy":0.0017,"dx":0.0017,"nx":28,"ny":28,"refTime":"2025-07-16T03:00:00:Z","depth":0,"parameterNumber":3,"parameterNumberName":"V-component_of_WINDS"},"data":[0,0,0,0,0,0,0,0,0,0,0,0,0,0,0,0,0,0,0,0,0,0,0,0,0,0,0,0,0,0,0,0,0,0,0,0,0,0,0,0,0,0,0,0,0,0,0,0,0,0,0,0,0,0,0,0,0,0,7.9267,7.9269,0,7.9465,7.9468,7.947,7.9417,7.9413,7.9409,7.9405,7.9604,7.9613,7.9622,0,0,0,0,0,0,0,0,0,0,0,0,0,7.8835,7.8843,7.9266,7.9269,7.9272,7.9465,7.9468,7.947,7.9417,7.9412,7.9408,7.9403,7.9601,7.9612,7.9623,0,0,0,0,0,0,0,0,0,0,0,0,0,7.9027,7.8846,7.9266,7.9268,7.9271,7.9464,7.9468,7.9471,7.9418,7.9412,7.9406,7.9401,7.9598,7.9611,7.9624,7.9827,0,0,7.9665,7.9671,0,0,0,0,0,0,0,0,7.9016,7.9043,7.9266,7.9269,7.9271,7.941,7.9389,7.959,7.942,7.9362,7.9405,7.9398,7.9544,7.9562,7.9612,7.9836,7.9845,7.9667,7.9675,7.9681,7.9685,0,0,0,0,0,0,0,7.9003,7.9034,7.9345,7.9269,7.9272,7.9258,7.9278,7.9427,7.9484,7.9367,7.9363,7.9388,7.9545,7.9599,7.9616,7.9847,7.9666,7.9678,7.9687,7.9692,8.0244,8.025,0,0,0,0,0,0,7.8988,7.9023,7.9339,7.9351,7.9127,7.927,7.9293,7.9372,7.9482,7.9493,7.9393,7.9385,7.9579,7.9601,7.9623,7.9864,7.9681,7.9693,7.9701,8.0237,8.0245,8.0252,0,0,0,0,0,0,7.8979,7.9017,7.9331,7.9186,7.9225,7.9284,7.9372,7.9379,7.9433,7.9502,7.9511,7.9438,7.9575,7.9604,7.9776,7.9871,7.9699,7.9712,8.023,8.024,8.0249,8.0351,0,0,0,0,0,0,7.8967,7.9014,7.9093,7.9189,7.9233,7.9482,7.9378,7.9387,7.9457,7.9448,7.9547,7.9558,7.9573,7.9756,7.9789,7.9886,7.9722,8.0221,8.0234,8.0246,8.0339,8.0363,8.0383,0,0,0,0,0,7.8952,7.9114,7.9097,7.9136,7.9333,7.9488,7.9513,7.9528,7.9465,7.9543,7.9587,7.9554,7.9856,7.9774,7.9811,7.9914,8.0215,8.023,8.0245,8.0329,8.0358,8.0383,0,0,0,0,0,0,7.9026,7.9126,7.9109,7.9307,7.939,7.9479,7.9578,7.9559,7.966,7.9647,7.9661,7.9683,7.9858,7.9904,7.9811,8.0113,8.0026,8.0049,8.0077,8.0106,8.0127,8.0111,7.9733,0,0,0,0,0,7.9066,7.9185,7.9265,7.9432,7.9474,7.952,7.9587,7.9592,7.9677,7.9711,7.9768,7.985,7.9963,8.0037,8.0145,8.0346,8.0365,8.0435,8.0457,8.0474,8.0493,8.0599,8.063,8.0301,8.0301,8.03,0,0,7.9149,7.9218,7.9292,7.9449,7.9513,7.9633,7.9549,7.9681,7.9769,7.9731,7.9896,7.9941,8.0033,8.022,8.0305,8.0263,8.0589,8.0493,8.0507,8.0516,8.0618,8.0649,8.0676,8.0311,8.0309,8.0307,0,0,7.9361,7.9427,7.9571,7.9637,7.9736,7.9765,7.98,7.9892,7.992,8.0086,8.0059,8.0164,8.0359,8.0426,8.0485,8.072,8.0693,8.0755,8.0869,8.0973,8.0999,8.1021,8.1102,8.1132,8.0774,8.0775,8.0775,0,7.9451,7.9633,7.9648,7.9781,7.9849,7.9821,7.9966,8.0029,8.0158,8.0204,8.0156,8.0399,8.046,8.0659,8.0717,8.0767,8.0805,8.0743,8.0994,8.1017,8.1039,8.1116,8.1147,8.0781,8.078,8.078,8.0779,0,7.9736,7.9863,7.9968,8.0093,8.0173,8.0312,8.0346,8.0425,8.0422,8.0455,8.0623,8.0695,8.0816,8.0864,8.0863,8.1064,8.1034,8.099,8.0902,8.1077,8.1149,8.1179,8.0791,8.0788,8.0786,8.0785,0,0,8.0,8.0131,8.0169,8.0224,8.0331,8.0428,8.0564,8.0683,8.0749,8.0838,8.0951,8.1116,8.1075,8.1143,8.1149,8.124,8.1418,8.1184,8.1186,8.1222,8.1639,8.167,8.1704,8.1401,8.1407,8.1412,8.1631,0,8.0219,8.046,8.0476,8.0693,8.0808,8.0783,8.0901,8.0977,8.1012,8.1113,8.1151,8.1266,8.1205,8.1245,8.1335,8.1377,8.1501,8.1362,8.1503,8.1508,8.1478,8.1743,8.1776,8.1979,8.1659,8.1664,8.1668,0,8.0506,8.0604,8.0832,8.092,8.0969,8.1075,8.1184,8.1282,8.1367,8.1386,8.1461,8.1454,8.1591,8.15,8.1687,8.1592,8.1651,8.168,8.1689,8.17,8.1596,8.1758,8.2045,8.2074,8.1713,8.171,8.1706,0,8.0671,8.086,8.1021,8.1069,8.1177,8.1251,8.1299,8.1379,8.1448,8.1543,8.1588,8.1698,8.1757,8.1841,8.1863,8.1795,8.2049,8.196,8.2066,8.2065,8.2118,8.2114,8.2415,8.2162,8.2161,8.216,8.216,0,8.0911,8.1051,8.1096,8.1194,8.1349,8.1367,8.1519,8.1562,8.1633,8.1737,8.1723,8.1821,8.1845,8.1947,8.1965,8.2116,8.2143,8.216,8.2163,8.216,8.2157,8.2197,8.2182,8.2169,8.2167,8.2165,8.2164,0,8.1121,8.1157,8.133,8.1417,8.1442,8.1552,8.1626,8.1719,8.1751,8.1884,8.1916,8.1966,8.2085,8.2116,8.2259,8.227,8.2447,8.2438,8.2419,8.2417,8.252,8.2509,8.2854,8.2899,8.2619,8.2621,8.2624,0,8.1271,8.1378,8.1477,8.1546,8.1597,8.1709,8.178,8.1801,8.1875,8.1979,8.2059,8.2177,8.2272,8.2463,8.2511,8.2619,8.2611,8.2724,8.2627,8.262,8.2609,8.2601,8.261,8.2742,8.2745,8.2747,8.2749,0,8.1532,8.1544,8.1647,8.1757,8.1842,8.1929,8.2012,8.2069,8.2101,8.2184,8.2306,8.238,8.2525,8.2641,8.275,8.2797,8.2778,8.278,8.281,8.2806,8.279,8.2797,8.2466,8.2771,8.2769,8.2768,8.2766,8.2766,8.1714,8.1807,8.189,8.2005,8.207,8.2147,8.2238,8.2282,8.2384,8.2505,8.251,8.2642,8.2723,8.2867,8.2921,8.3023,8.2988,8.3032,8.3042,8.3052,8.3059,8.2776,8.3043,8.3042,8.3042,8.3041,8.3041,0,8.1971,8.2023,8.2129,8.2245,8.2335,8.2311,8.2401,8.2477,8.2594,8.2671,8.2765,8.2904,8.3016,8.3073,8.3183,8.3254,8.3248,8.3282,8.3275,8.3286,8.3086,8.3048,8.3285,8.3285,8.3285,8.3285,8.3285,8.3285,8.2115,8.227,8.2292,8.2477,8.2528,8.2657,8.2711,8.2781,8.2843,8.2999,8.3092,8.3129,8.3197,8.3313,8.3413,8.3427,8.3467,8.3506,8.3514,8.3326,8.3301,8.3277,8.3241,8.3515,8.3515,8.3706,8.3708,8.3709]}]]